TimeEST,TemperatureF,Dew PointF,Humidity,Sea Level PressureIn,VisibilityMPH,Wind Direction,Wind SpeedMPH,Gust SpeedMPH,PrecipitationIn,Events,Conditions,WindDirDegrees,DateUTC
12:53 AM,62.1,55.9,80,30.09,10.0,NNW,6.9,-,N/A,,Clear,330,2013-01-22 05:53:00
1:53 AM,61.0,54.0,78,30.07,10.0,NNW,9.2,-,N/A,,Partly Cloudy,340,2013-01-22 06:53:00
2:53 AM,60.1,53.1,78,30.06,10.0,NNW,9.2,-,N/A,,Scattered Clouds,340,2013-01-22 07:53:00
3:53 AM,60.1,53.1,78,30.07,10.0,North,5.8,-,N/A,,Scattered Clouds,350,2013-01-22 08:53:00
4:53 AM,59.0,52.0,78,30.07,10.0,North,5.8,-,N/A,,Clear,10,2013-01-22 09:53:00
5:34 AM,60.8,51.8,72,30.08,10.0,North,6.9,-,N/A,,Mostly Cloudy,360,2013-01-22 10:34:00
5:53 AM,59.0,52.0,78,30.09,10.0,North,5.8,-,N/A,,Mostly Cloudy,10,2013-01-22 10:53:00
6:04 AM,59.0,51.8,77,30.10,10.0,North,4.6,-,N/A,,Scattered Clouds,360,2013-01-22 11:04:00
6:53 AM,59.0,52.0,78,30.12,10.0,North,6.9,-,N/A,,Clear,360,2013-01-22 11:53:00
7:53 AM,59.0,51.1,75,30.14,10.0,North,6.9,-,N/A,,Partly Cloudy,10,2013-01-22 12:53:00
8:53 AM,61.0,48.9,64,30.16,10.0,NNE,9.2,-,N/A,,Partly Cloudy,20,2013-01-22 13:53:00
9:53 AM,63.0,46.9,56,30.18,10.0,NNE,10.4,-,N/A,,Clear,30,2013-01-22 14:53:00
10:53 AM,66.0,46.9,50,30.20,10.0,North,11.5,-,N/A,,Scattered Clouds,10,2013-01-22 15:53:00
11:53 AM,66.9,46.9,49,30.19,10.0,NNE,11.5,-,N/A,,Clear,20,2013-01-22 16:53:00
12:53 PM,69.1,48.0,47,30.17,10.0,NNE,10.4,-,N/A,,Clear,30,2013-01-22 17:53:00
1:53 PM,70.0,46.9,44,30.15,10.0,NE,10.4,18.4,N/A,,Clear,40,2013-01-22 18:53:00
2:53 PM,70.0,46.9,44,30.14,10.0,NNE,12.7,-,N/A,,Clear,30,2013-01-22 19:53:00
3:53 PM,69.1,48.9,49,30.14,10.0,NNE,13.8,-,N/A,,Clear,30,2013-01-22 20:53:00
4:53 PM,66.9,48.9,52,30.17,10.0,NNE,9.2,-,N/A,,Clear,30,2013-01-22 21:53:00
5:53 PM,66.0,48.0,52,30.19,10.0,NNE,12.7,19.6,N/A,,Clear,30,2013-01-22 22:53:00
6:53 PM,64.0,46.9,54,30.20,10.0,NE,10.4,-,N/A,,Clear,50,2013-01-22 23:53:00
7:53 PM,63.0,46.0,54,30.22,10.0,NE,10.4,-,N/A,,Clear,40,2013-01-23 00:53:00
8:53 PM,61.0,43.0,52,30.26,10.0,NE,9.2,-,N/A,,Clear,50,2013-01-23 01:53:00
9:53 PM,60.1,41.0,49,30.26,10.0,NE,9.2,-,N/A,,Clear,50,2013-01-23 02:53:00
10:53 PM,59.0,39.0,48,30.27,10.0,NE,9.2,-,N/A,,Clear,40,2013-01-23 03:53:00
11:53 PM,57.9,41.0,53,30.26,10.0,NNE,11.5,-,N/A,,Clear,30,2013-01-23 04:53:00